This is the latest recevied weather packets stored in our database for station/object VK2HN. If no packets are shown the sender has not sent any weather packets the latest 10 day(s).
| Time | Temp. | Humidity | Pressure | Rain* | Wind** | Luminosity | Snow |
|---|---|---|---|---|---|---|---|
| 1778117138 | 18.33° C | 52% | 1015.1 hPa | 0 mm | - | - | - |
| 1778116838 | 18.33° C | 52% | 1015.1 hPa | 0 mm | - | - | - |
| 1778116538 | 17.78° C | 54% | 1015.2 hPa | 0 mm | - | - | - |
| 1778116238 | 17.22° C | 55% | 1015.1 hPa | 0 mm | - | - | - |
| 1778115938 | 17.22° C | 52% | 1015.2 hPa | 0 mm | - | - | - |
| 1778115638 | 17.22° C | 52% | 1015.2 hPa | 0 mm | - | - | - |
| 1778115338 | 17.22° C | 53% | 1015.1 hPa | 0 mm | - | - | - |
| 1778115038 | 17.22° C | 54% | 1015 hPa | 0 mm | - | - | - |
| 1778114738 | 17.22° C | 54% | 1014.9 hPa | 0 mm | - | - | - |
| 1778114438 | 17.78° C | 62% | 1014.9 hPa | 0 mm | - | - | - |
| 1778114138 | 17.78° C | 60% | 1014.7 hPa | 0 mm | - | - | - |
| 1778113838 | 18.33° C | 62% | 1014.6 hPa | 0 mm | - | - | - |
| 1778113538 | 18.33° C | 62% | 1014.7 hPa | 0 mm | - | - | - |
| 1778113238 | 17.78° C | 62% | 1014.5 hPa | 0 mm | - | - | - |
| 1778112938 | 17.78° C | 63% | 1014.5 hPa | 0 mm | - | - | - |
| 1778112638 | 17.22° C | 65% | 1014.6 hPa | 0 mm | - | - | - |
| 1778112338 | 17.22° C | 65% | 1014.6 hPa | 0 mm | - | - | - |
| 1778112038 | 17.22° C | 67% | 1014.6 hPa | 0 mm | - | - | - |
| 1778111738 | 16.67° C | 68% | 1014.6 hPa | 0 mm | - | - | - |
| 1778111438 | 16.67° C | 69% | 1014.6 hPa | 0 mm | - | - | - |
| 1778111138 | 16.11° C | 74% | 1014.6 hPa | 0 mm | - | - | - |
| 1778110838 | 15.56° C | 74% | 1014.6 hPa | 0 mm | - | - | - |
| 1778110538 | 15.56° C | 75% | 1014.4 hPa | 0 mm | - | - | - |
| 1778110238 | 15° C | 74% | 1014.6 hPa | 0 mm | - | - | - |
| 1778109938 | 15° C | 75% | 1014.7 hPa | 0 mm | - | - | - |
* Rain latest hour (hover to see other rain measurements)
** Current wind speed in m/s (hover to see current wind gust speed)